Location: Kellogg
(38.0159°N, 90.0546°W)
Time: 08:09:56
(UTC+00:00)

Altair - Pass Details

Date: 18 September 2024
Orbit: 1501 x 1682 km, 47.2° (Epoch: 07 October)

Event Time Altitude Azimuth Distance (km) Brightness Sun altitude
Rises 16:41:13 0° 287° (WNW) 4,923 9.9 49.8°
Reaches altitude 10° 16:47:12 10° 260° (W) 3,904 9.6 50.4°
Maximum altitude 16:50:35 12° 240° (WSW) 3,708 9.7 50.7°
Drops below altitude 10° 16:53:56 10° 219° (SW) 3,857 10.0 50.9°
Sets 16:59:50 0° 192° (SSW) 4,793 10.6 51.4°
